Location: ?????
(55.6500°N, 37.2500°E)
Time: 03:30:27
(UTC+00:00)

Exosat Rocket - Pass Details

Date: 19 May 2025
Orbit: 761 x 2512 km, 72.3° (Epoch: 14 June)

Event Time Altitude Azimuth Distance (km) Brightness Sun altitude
Rises 21:09:01 0° 327° (NNW) 3,422 8.0 -14.3°
Reaches altitude 10° 21:11:35 10° 322° (NW) 2,386 6.9 -14.3°
Maximum altitude 21:16:33 51° 248° (WSW) 959 3.9 -14.3°
Enters shadow 21:19:35 22° 181° (S) 1,647 4.6 -14.4°
